When you browse on this site, cookies collect data to enhance your experience and personalize the content and advertising you see.
Visit our Privacy Policy to learn more. By continuing to use the site, you agree to this use of cookies and data.
  • In Hungary
  • List of Countries
  • For 7 days
  • Water Temperature
  • Weather Map
  • News
  • Weather Widgets
  • user-avatar
    Login

    Hourly Weather Lypovets'

    Today, 7 December, Saturday

    Time Temperature Precipitation Wind Pressure Humidity
    00:00 -5°C° 0 mm 2 mps 726 mmHg 92%
    01:00 -3°C° 0 mm 1 mps 726 mmHg 94%
    02:00 -2°C° 0 mm 1 mps 726 mmHg 92%
    03:00 -2°C° 0 mm 1 mps 725 mmHg 88%
    04:00 -3°C° 0 mm 1 mps 724 mmHg 87%
    05:00 -5°C° 0 mm 2 mps 724 mmHg 91%
    06:00 -5°C° 0 mm 2 mps 724 mmHg 94%
    07:00 -5°C° 0 mm 2 mps 724 mmHg 92%
    08:00 -4°C° 0 mm 2 mps 724 mmHg 94%
    09:00 -4°C° 0 mm 2 mps 724 mmHg 95%
    10:00 -3°C° 0 mm 2 mps 724 mmHg 96%
    11:00 -2°C° 0 mm 2 mps 724 mmHg 97%
    12:00 -2°C° 0 mm 2 mps 724 mmHg 97%
    13:00 -1°C° 0 mm 3 mps 723 mmHg 97%
    14:00 -1°C° 0 mm 2 mps 723 mmHg 97%
    15:00 -1°C° 0 mm 2 mps 723 mmHg 99%
    16:00 +1°C° 0 mm 1 mps 723 mmHg 100%
    17:00 +1°C° 0 mm 1 mps 723 mmHg 100%
    18:00 +1°C° 0.1 mm 1 mps 723 mmHg 100%
    19:00 +1°C° 0 mm 1 mps 723 mmHg 100%
    20:00 0°C° 0 mm 1 mps 724 mmHg 100%
    21:00 0°C° 0 mm 1 mps 724 mmHg 100%
    22:00 0°C° 0 mm 1 mps 724 mmHg 100%
    23:00 0°C° 0.1 mm 1 mps 724 mmHg 100%

    Tomorrow, 8 December, Sunday

    Time Temperature Precipitation Wind Pressure Humidity
    00:00 -1°C° 0.3 mm 1 mps 724 mmHg 100%
    01:00 -1°C° 0.2 mm 1 mps 724 mmHg 100%
    02:00 -1°C° 0.1 mm 1 mps 724 mmHg 100%
    03:00 -1°C° 0.1 mm 1 mps 724 mmHg 100%
    04:00 -1°C° 0 mm 1 mps 724 mmHg 100%
    05:00 -1°C° 0 mm 1 mps 724 mmHg 100%
    06:00 0°C° 0.1 mm 1 mps 724 mmHg 100%
    07:00 0°C° 0.1 mm 1 mps 724 mmHg 100%
    08:00 0°C° 0.1 mm 1 mps 725 mmHg 100%
    09:00 0°C° 0.1 mm 1 mps 725 mmHg 100%
    10:00 0°C° 0 mm 1 mps 725 mmHg 100%
    11:00 +1°C° 0 mm 1 mps 725 mmHg 100%
    12:00 +1°C° 0 mm 1 mps 725 mmHg 100%
    13:00 +1°C° 0 mm 1 mps 725 mmHg 100%
    14:00 -1°C° 0 mm 2 mps 725 mmHg 100%
    15:00 +1°C° 0 mm 1 mps 725 mmHg 100%
    16:00 +1°C° 0 mm 1 mps 724 mmHg 100%
    17:00 +1°C° 0 mm 1 mps 725 mmHg 100%
    18:00 +1°C° 0 mm 1 mps 724 mmHg 100%
    19:00 +1°C° 0.1 mm 1 mps 724 mmHg 100%
    20:00 +1°C° 0.1 mm 1 mps 725 mmHg 100%
    21:00 +1°C° 0.2 mm 1 mps 724 mmHg 100%
    22:00 -1°C° 0.1 mm 2 mps 724 mmHg 100%
    23:00 -1°C° 0 mm 2 mps 724 mmHg 100%

    Day after tomorrow, 9 December, Monday

    Time Temperature Precipitation Wind Pressure Humidity
    00:00 +1°C° 0 mm 2 mps 723 mmHg 100%
    01:00 +1°C° 0 mm 2 mps 723 mmHg 100%
    02:00 +1°C° 0 mm 2 mps 723 mmHg 100%
    03:00 +1°C° 0 mm 2 mps 723 mmHg 100%
    04:00 +1°C° 0 mm 2 mps 722 mmHg 100%
    05:00 +1°C° 0 mm 2 mps 722 mmHg 99%
    06:00 0°C° 0.1 mm 3 mps 721 mmHg 100%
    07:00 0°C° 0.8 mm 3 mps 721 mmHg 100%
    08:00 +1°C° 1.5 mm 2 mps 720 mmHg 100%
    09:00 +1°C° 0.7 mm 2 mps 720 mmHg 100%
    10:00 +1°C° 1.2 mm 3 mps 720 mmHg 100%
    11:00 +1°C° 0.8 mm 3 mps 719 mmHg 100%
    12:00 +1°C° 0.9 mm 3 mps 719 mmHg 100%
    13:00 +1°C° 2.1 mm 3 mps 718 mmHg 100%
    14:00 +2°C° 2.4 mm 3 mps 718 mmHg 100%
    15:00 +3°C° 1.7 mm 2 mps 717 mmHg 100%
    16:00 +3°C° 2.4 mm 2 mps 717 mmHg 100%
    17:00 +4°C° 3.1 mm 1 mps 717 mmHg 100%
    18:00 +3°C° 2.4 mm 2 mps 717 mmHg 100%
    19:00 +3°C° 0.7 mm 2 mps 717 mmHg 100%
    20:00 +3°C° 0.1 mm 2 mps 717 mmHg 100%
    21:00 +3°C° 0.2 mm 2 mps 717 mmHg 100%
    22:00 +3°C° 0.3 mm 2 mps 717 mmHg 100%
    23:00 +4°C° 0.1 mm 2 mps 716 mmHg 100%

    10 December, Tuesday

    Time Temperature Precipitation Wind Pressure Humidity
    00:00 +4°C° 0 mm 2 mps 716 mmHg 100%
    01:00 +4°C° 0 mm 2 mps 716 mmHg 100%
    02:00 +4°C° 0.6 mm 1 mps 716 mmHg 100%
    03:00 +4°C° 1.7 mm 1 mps 716 mmHg 100%
    04:00 +3°C° 1.6 mm 2 mps 716 mmHg 100%
    05:00 +3°C° 2.5 mm 2 mps 716 mmHg 100%
    06:00 +4°C° 2.3 mm 1 mps 716 mmHg 100%
    07:00 +4°C° 2.3 mm 1 mps 716 mmHg 100%
    08:00 +4°C° 2.1 mm 1 mps 717 mmHg 100%
    09:00 +4°C° 3.5 mm 1 mps 717 mmHg 100%
    10:00 +4°C° 2.7 mm 1 mps 717 mmHg 100%
    11:00 +4°C° 1.9 mm 1 mps 718 mmHg 100%
    12:00 +3°C° 1 mm 0 mps 718 mmHg 100%
    13:00 +4°C° 0.1 mm 0 mps 718 mmHg 100%
    14:00 +4°C° 0 mm 0 mps 718 mmHg 100%

    11 December, Wednesday

    Time Temperature Precipitation Wind Pressure Humidity

    12 December, Thursday

    Time Temperature Precipitation Wind Pressure Humidity
    Show more